VOE2BC LFQQ-LICB

Flight info

Callsign VOE2BC
Flight time 2h 27m
Altitude 37000
Route CIV UM617 BUPAL UL607 SPI DCT ARCKY DCT LIRSU DCT KRH DCT BATUB DCT TIRUL Y740 NATAG DCT LORLO DCT RENTA DCT VABOK DCT GAVRA DCT VAKOR DCT LIBRO
Aircraft A320/M-SDE3FGHIRWY/LB1

Departure

Time 2026-05-04 12:32
Airport Lille Airport (LFQQ)

Arrival

Time 2026-05-04 14:59
Airport Comiso Airport (LICB)
Time Latitude Longitude Altitude Speed Heading
2026-05-04 12:08 50.57068 3.10471 151 ft 0 kts 349°
2026-05-04 12:22 50.57064 3.10472 151 ft 3 kts 348°
2026-05-04 12:22 50.57038 3.10481 151 ft 3 kts 347°
2026-05-04 12:23 50.57017 3.10486 151 ft 4 kts 19°
2026-05-04 12:23 50.57004 3.10462 151 ft 4 kts 78°
2026-05-04 12:23 50.56999 3.10423 151 ft 4 kts 81°
2026-05-04 12:23 50.56996 3.10393 151 ft 0 kts 78°
2026-05-04 12:24 50.56995 3.10393 151 ft 0 kts 78°
2026-05-04 12:26 50.57001 3.10435 151 ft 9 kts 78°
2026-05-04 12:26 50.57019 3.10566 151 ft 14 kts 78°
2026-05-04 12:27 50.57014 3.10686 151 ft 11 kts 135°
2026-05-04 12:27 50.56938 3.10719 151 ft 12 kts 168°
2026-05-04 12:27 50.56860 3.10761 151 ft 12 kts 141°
2026-05-04 12:27 50.56855 3.10891 151 ft 13 kts 76°
2026-05-04 12:28 50.56876 3.11042 151 ft 15 kts 78°
2026-05-04 12:28 50.56899 3.11208 151 ft 16 kts 77°
2026-05-04 12:28 50.56926 3.11393 151 ft 18 kts 77°
2026-05-04 12:28 50.56937 3.11564 151 ft 9 kts 111°
2026-05-04 12:29 50.56899 3.11600 151 ft 6 kts 169°
2026-05-04 12:29 50.56867 3.11609 152 ft 4 kts 169°
2026-05-04 12:29 50.56838 3.11619 152 ft 8 kts 168°
2026-05-04 12:29 50.56788 3.11643 154 ft 7 kts 144°
2026-05-04 12:30 50.56778 3.11739 153 ft 11 kts 78°
2026-05-04 12:30 50.56794 3.11859 152 ft 12 kts 77°
2026-05-04 12:30 50.56819 3.11997 151 ft 14 kts 60°
2026-05-04 12:30 50.56879 3.12102 151 ft 9 kts 47°
2026-05-04 12:31 50.56877 3.12175 151 ft 6 kts 133°
2026-05-04 12:31 50.56844 3.12177 151 ft 4 kts 210°
2026-05-04 12:31 50.56835 3.12144 151 ft 3 kts 257°
2026-05-04 12:31 50.56824 3.12067 151 ft 28 kts 257°
2026-05-04 12:32 50.56724 3.11364 155 ft 100 kts 257°
2026-05-04 12:32 50.56268 3.08178 453 ft 175 kts 256°
2026-05-04 12:32 50.55807 3.06426 1201 ft 174 kts 228°
2026-05-04 12:33 50.54755 3.05486 2046 ft 183 kts 191°
2026-05-04 12:33 50.53461 3.05644 2773 ft 192 kts 158°
2026-05-04 12:33 50.52391 3.06874 3534 ft 193 kts 124°
2026-05-04 12:33 50.51940 3.08861 4164 ft 197 kts 100°
2026-05-04 12:34 50.51695 3.10966 4850 ft 194 kts 101°
2026-05-04 12:34 50.51443 3.13044 5458 ft 194 kts 101°
2026-05-04 12:34 50.51186 3.15130 6041 ft 195 kts 102°
2026-05-04 12:34 50.50924 3.17198 6593 ft 196 kts 104°
2026-05-04 12:35 50.50362 3.19155 7029 ft 204 kts 127°
2026-05-04 12:35 50.49397 3.20940 7239 ft 226 kts 131°
2026-05-04 12:35 50.48301 3.22893 7478 ft 251 kts 131°
2026-05-04 12:35 50.47096 3.25035 7843 ft 272 kts 131°
2026-05-04 12:36 50.45825 3.27304 8549 ft 280 kts 131°
2026-05-04 12:36 50.44530 3.29614 9364 ft 284 kts 131°
2026-05-04 12:36 50.43216 3.31955 10153 ft 288 kts 132°
2026-05-04 12:36 50.41845 3.34393 10512 ft 309 kts 131°
2026-05-04 12:37 50.40370 3.37025 10775 ft 333 kts 131°
2026-05-04 12:37 50.39095 3.40197 11001 ft 358 kts 111°
2026-05-04 12:37 50.38736 3.44110 11447 ft 371 kts 85°
2026-05-04 12:37 50.39442 3.48024 12102 ft 378 kts 66°
2026-05-04 12:38 50.40745 3.51629 12886 ft 383 kts 56°
2026-05-04 12:38 50.42360 3.54971 13713 ft 388 kts 50°
2026-05-04 12:38 50.44147 3.58179 14473 ft 393 kts 48°
2026-05-04 12:38 50.45997 3.61372 15203 ft 397 kts 48°
2026-05-04 12:39 50.47841 3.64620 15835 ft 400 kts 49°
2026-05-04 12:39 50.49656 3.67955 16441 ft 402 kts 50°
2026-05-04 12:39 50.51435 3.71369 17025 ft 405 kts 51°
2026-05-04 12:39 50.53199 3.74858 17584 ft 409 kts 52°
2026-05-04 12:40 50.54962 3.78395 18131 ft 413 kts 53°
2026-05-04 12:40 50.56627 3.82093 18607 ft 416 kts 60°
2026-05-04 12:40 50.57907 3.86171 19054 ft 418 kts 70°
2026-05-04 12:40 50.58824 3.90535 19486 ft 421 kts 73°
2026-05-04 12:41 50.59683 3.94900 19922 ft 425 kts 73°
2026-05-04 12:41 50.60562 3.99354 20348 ft 428 kts 73°
2026-05-04 12:41 50.61450 4.03850 20762 ft 432 kts 74°
2026-05-04 12:41 50.62343 4.08389 21166 ft 435 kts 74°
2026-05-04 12:42 50.63236 4.12959 21561 ft 439 kts 74°
2026-05-04 12:42 50.64131 4.17567 21946 ft 442 kts 74°
2026-05-04 12:42 50.65033 4.22221 22324 ft 445 kts 75°
2026-05-04 12:42 50.65939 4.26900 22690 ft 448 kts 75°
2026-05-04 12:43 50.66849 4.31617 23048 ft 451 kts 75°
2026-05-04 12:43 50.67764 4.36365 23395 ft 454 kts 75°
2026-05-04 12:43 50.68683 4.41149 23714 ft 457 kts 75°
2026-05-04 12:43 50.69605 4.45969 24023 ft 460 kts 75°
2026-05-04 12:44 50.70526 4.50807 24313 ft 462 kts 76°
2026-05-04 12:44 50.71189 4.55746 24599 ft 461 kts 85°
2026-05-04 12:44 50.71363 4.60786 24886 ft 459 kts 95°
2026-05-04 12:44 50.71045 4.65784 25170 ft 458 kts 103°
2026-05-04 12:45 50.70267 4.70638 25452 ft 455 kts 111°
2026-05-04 12:45 50.69337 4.75413 25759 ft 456 kts 111°
2026-05-04 12:45 50.68403 4.80200 26023 ft 458 kts 111°
2026-05-04 12:45 50.67465 4.85009 26275 ft 459 kts 111°
2026-05-04 12:46 50.66527 4.89830 26521 ft 461 kts 111°
2026-05-04 12:46 50.65577 4.94661 26767 ft 462 kts 111°
2026-05-04 12:46 50.64601 4.99495 26996 ft 463 kts 112°
2026-05-04 12:46 50.63607 5.04323 27244 ft 464 kts 112°
2026-05-04 12:47 50.62604 5.09152 27580 ft 463 kts 112°
2026-05-04 12:47 50.61603 5.13962 27879 ft 462 kts 112°
2026-05-04 12:47 50.60599 5.18780 28094 ft 464 kts 112°
2026-05-04 12:47 50.59589 5.23615 28357 ft 465 kts 112°
2026-05-04 12:48 50.58580 5.28448 28663 ft 465 kts 112°
2026-05-04 12:48 50.57574 5.33281 28988 ft 465 kts 112°
2026-05-04 12:48 50.56570 5.38112 29318 ft 464 kts 112°
2026-05-04 12:48 50.55568 5.42934 29650 ft 464 kts 112°
2026-05-04 12:49 50.54559 5.47752 29983 ft 463 kts 113°
2026-05-04 12:49 50.53547 5.52555 30269 ft 463 kts 113°
2026-05-04 12:49 50.52533 5.57355 30550 ft 462 kts 113°
2026-05-04 12:49 50.51385 5.61982 30798 ft 457 kts 121°
2026-05-04 12:50 50.49829 5.66293 31098 ft 450 kts 129°
2026-05-04 12:50 50.48100 5.70377 31395 ft 449 kts 129°
2026-05-04 12:50 50.46376 5.74463 31674 ft 448 kts 129°
2026-05-04 12:50 50.44656 5.78546 31942 ft 448 kts 129°
2026-05-04 12:51 50.42938 5.82620 32214 ft 448 kts 129°
2026-05-04 12:51 50.41221 5.86688 32490 ft 447 kts 129°
2026-05-04 12:51 50.39499 5.90754 32779 ft 447 kts 129°
2026-05-04 12:51 50.37776 5.94805 33076 ft 447 kts 129°
2026-05-04 12:52 50.36051 5.98857 33385 ft 446 kts 129°
2026-05-04 12:52 50.34331 6.02901 33660 ft 446 kts 129°
2026-05-04 12:52 50.32608 6.06938 33950 ft 446 kts 130°
2026-05-04 12:52 50.31467 6.09604 34129 ft 446 kts 130°
2026-05-04 12:53 50.29769 6.13668 34364 ft 449 kts 126°
2026-05-04 12:53 50.28260 6.17960 34577 ft 450 kts 124°
2026-05-04 12:53 50.26761 6.22265 34794 ft 451 kts 124°
2026-05-04 12:53 50.25262 6.26564 34987 ft 451 kts 124°
2026-05-04 12:54 50.23761 6.30864 35204 ft 451 kts 124°
2026-05-04 12:54 50.22258 6.35155 35412 ft 450 kts 124°
2026-05-04 12:54 50.20750 6.39447 35594 ft 451 kts 124°
2026-05-04 12:54 50.19226 6.43711 35751 ft 449 kts 127°
2026-05-04 12:55 50.17426 6.47658 35894 ft 444 kts 135°
2026-05-04 12:55 50.15435 6.51338 36037 ft 445 kts 135°
2026-05-04 12:55 50.13434 6.55034 36217 ft 445 kts 135°
2026-05-04 12:55 50.11438 6.58731 36411 ft 446 kts 135°
2026-05-04 12:56 50.09443 6.62426 36582 ft 446 kts 135°
2026-05-04 12:56 50.07444 6.66119 36750 ft 446 kts 135°
2026-05-04 12:56 50.05442 6.69810 36937 ft 446 kts 135°
2026-05-04 12:57 50.01410 6.77235 37016 ft 452 kts 135°
2026-05-04 12:57 49.97343 6.84700 37000 ft 452 kts 135°
2026-05-04 12:58 49.93281 6.92137 37011 ft 452 kts 135°
2026-05-04 12:58 49.89210 6.99562 36989 ft 452 kts 135°
2026-05-04 12:59 49.85135 7.06977 36988 ft 451 kts 135°
2026-05-04 12:59 49.81057 7.14369 36994 ft 452 kts 135°
2026-05-04 13:00 49.76966 7.21761 36994 ft 452 kts 135°
2026-05-04 13:00 49.72909 7.29095 36969 ft 451 kts 135°
2026-05-04 13:01 49.68819 7.36455 36986 ft 452 kts 135°
2026-05-04 13:01 49.64718 7.43796 36997 ft 451 kts 135°
2026-05-04 13:02 49.60609 7.51131 37009 ft 451 kts 135°
2026-05-04 13:02 49.56507 7.58460 37016 ft 452 kts 135°
2026-05-04 13:03 49.52396 7.65789 37001 ft 451 kts 135°
2026-05-04 13:03 49.48284 7.73087 37003 ft 452 kts 135°
2026-05-04 13:04 49.44161 7.80370 37013 ft 452 kts 136°
2026-05-04 13:04 49.40029 7.87648 37016 ft 451 kts 136°
2026-05-04 13:05 49.35893 7.94912 37017 ft 451 kts 136°
2026-05-04 13:05 49.31762 8.02163 37016 ft 451 kts 136°
2026-05-04 13:06 49.27654 8.09357 36996 ft 451 kts 136°
2026-05-04 13:06 49.23512 8.16586 36985 ft 451 kts 136°
2026-05-04 13:07 49.19365 8.23798 36985 ft 451 kts 136°
2026-05-04 13:07 49.15213 8.30994 36982 ft 451 kts 136°
2026-05-04 13:08 49.11060 8.38178 36991 ft 452 kts 136°
2026-05-04 13:08 49.06893 8.45377 36997 ft 452 kts 136°
2026-05-04 13:09 49.02727 8.52537 36993 ft 452 kts 136°
2026-05-04 13:09 48.98373 8.59280 37000 ft 445 kts 147°
2026-05-04 13:10 48.93296 8.64574 36994 ft 443 kts 150°
2026-05-04 13:10 48.88185 8.69806 36988 ft 443 kts 150°
2026-05-04 13:11 48.83114 8.75008 36988 ft 443 kts 150°
2026-05-04 13:11 48.78001 8.80231 36975 ft 444 kts 150°
2026-05-04 13:12 48.72926 8.85402 36983 ft 444 kts 150°
2026-05-04 13:12 48.67793 8.90621 36996 ft 445 kts 150°
2026-05-04 13:13 48.62650 8.95826 37002 ft 445 kts 150°
2026-05-04 13:13 48.57494 9.01028 37006 ft 445 kts 150°
2026-05-04 13:14 48.52348 9.06226 37005 ft 445 kts 150°
2026-05-04 13:14 48.47237 9.11379 36969 ft 445 kts 150°
2026-05-04 13:15 48.42088 9.16549 36977 ft 445 kts 150°
2026-05-04 13:15 48.36926 9.21705 36980 ft 445 kts 150°
2026-05-04 13:16 48.31758 9.26846 36984 ft 446 kts 150°
2026-05-04 13:16 48.26592 9.31990 36980 ft 446 kts 150°
2026-05-04 13:17 48.21419 9.37124 36977 ft 445 kts 150°
2026-05-04 13:17 48.16253 9.42250 36978 ft 445 kts 150°
2026-05-04 13:18 48.11085 9.47362 36971 ft 445 kts 150°
2026-05-04 13:18 48.05902 9.52457 36972 ft 446 kts 150°
2026-05-04 13:19 48.00726 9.57552 36974 ft 446 kts 150°
2026-05-04 13:19 47.95591 9.62767 36974 ft 446 kts 149°
2026-05-04 13:20 47.90486 9.68059 36974 ft 446 kts 149°
2026-05-04 13:20 47.85412 9.73275 36975 ft 446 kts 149°
2026-05-04 13:21 47.80286 9.78478 36955 ft 446 kts 149°
2026-05-04 13:21 47.75147 9.83675 36967 ft 446 kts 149°
2026-05-04 13:22 47.70009 9.88870 36972 ft 447 kts 149°
2026-05-04 13:22 47.64871 9.94053 36980 ft 447 kts 149°
2026-05-04 13:23 47.59727 9.99230 36982 ft 447 kts 149°
2026-05-04 13:23 47.54588 10.04398 36974 ft 447 kts 149°
2026-05-04 13:24 47.49444 10.09557 36987 ft 447 kts 149°
2026-05-04 13:24 47.44287 10.14708 36987 ft 448 kts 149°
2026-05-04 13:25 47.36570 10.22391 37005 ft 448 kts 149°
2026-05-04 13:25 47.31395 10.27541 37014 ft 449 kts 149°
2026-05-04 13:26 47.26218 10.32674 37027 ft 449 kts 149°
2026-05-04 13:26 47.21037 10.37793 37029 ft 448 kts 149°
2026-05-04 13:27 47.15854 10.42907 37052 ft 449 kts 149°
2026-05-04 13:27 47.10664 10.48023 37052 ft 450 kts 149°
2026-05-04 13:28 47.05352 10.52775 37057 ft 444 kts 159°
2026-05-04 13:28 46.99531 10.55667 37053 ft 441 kts 166°
2026-05-04 13:29 46.93705 10.58297 37056 ft 441 kts 166°
2026-05-04 13:29 46.87844 10.60938 37063 ft 441 kts 166°
2026-05-04 13:30 46.81968 10.63585 37063 ft 441 kts 166°
2026-05-04 13:30 46.76102 10.66228 37068 ft 442 kts 166°
2026-05-04 13:31 46.70220 10.68866 37075 ft 442 kts 166°
2026-05-04 13:31 46.64344 10.71477 37074 ft 442 kts 166°
2026-05-04 13:32 46.58454 10.74076 37085 ft 442 kts 166°
2026-05-04 13:32 46.52568 10.76674 37100 ft 442 kts 166°
2026-05-04 13:33 46.46678 10.79275 37093 ft 442 kts 166°
2026-05-04 13:33 46.40788 10.81866 37098 ft 442 kts 166°
2026-05-04 13:34 46.34899 10.84454 37180 ft 442 kts 166°
2026-05-04 13:34 46.29017 10.87033 37183 ft 442 kts 166°
2026-05-04 13:35 46.20143 10.90721 37179 ft 442 kts 167°
2026-05-04 13:36 46.14229 10.93145 37159 ft 442 kts 167°
2026-05-04 13:36 46.08310 10.95589 37154 ft 443 kts 167°
2026-05-04 13:37 46.02428 10.98028 37133 ft 443 kts 167°
2026-05-04 13:37 45.96499 11.00482 37106 ft 443 kts 167°
2026-05-04 13:38 45.90570 11.02924 37102 ft 443 kts 167°
2026-05-04 13:38 45.84642 11.05358 37105 ft 443 kts 167°
2026-05-04 13:39 45.78719 11.07782 37070 ft 443 kts 167°
2026-05-04 13:39 45.72780 11.10215 37075 ft 444 kts 167°
2026-05-04 13:40 45.66831 11.12649 37074 ft 444 kts 167°
2026-05-04 13:40 45.60883 11.15064 37066 ft 444 kts 167°
2026-05-04 13:41 45.55933 11.17067 37066 ft 445 kts 167°
2026-05-04 13:41 45.49985 11.19477 37070 ft 444 kts 167°
2026-05-04 13:42 45.41058 11.23099 37073 ft 445 kts 167°
2026-05-04 13:42 45.35105 11.25510 37066 ft 445 kts 167°
2026-05-04 13:43 45.29141 11.27902 37068 ft 445 kts 167°
2026-05-04 13:43 45.23159 11.30172 37070 ft 445 kts 169°
2026-05-04 13:44 45.17153 11.32332 37060 ft 445 kts 169°
2026-05-04 13:44 45.11177 11.34495 37066 ft 446 kts 169°
2026-05-04 13:45 45.05123 11.36723 37068 ft 447 kts 168°
2026-05-04 13:45 44.99147 11.38916 37063 ft 447 kts 169°
2026-05-04 13:46 44.93113 11.41129 37061 ft 448 kts 169°
2026-05-04 13:46 44.87066 11.43337 37064 ft 449 kts 169°
2026-05-04 13:47 44.81005 11.45549 37068 ft 450 kts 169°
2026-05-04 13:47 44.74936 11.47753 37060 ft 450 kts 169°
2026-05-04 13:48 44.68858 11.49951 37067 ft 451 kts 169°
2026-05-04 13:48 44.62785 11.52157 37076 ft 451 kts 169°
2026-05-04 13:49 44.56694 11.54352 37061 ft 452 kts 169°
2026-05-04 13:49 44.50592 11.56545 37064 ft 453 kts 169°
2026-05-04 13:50 44.44467 11.58747 37069 ft 454 kts 169°
2026-05-04 13:50 44.38384 11.60928 37056 ft 455 kts 170°
2026-05-04 13:51 44.32242 11.63127 37057 ft 456 kts 170°
2026-05-04 13:51 44.26095 11.65314 37068 ft 456 kts 170°
2026-05-04 13:52 44.16854 11.68613 37089 ft 457 kts 169°
2026-05-04 13:53 44.10693 11.70811 37095 ft 457 kts 169°
2026-05-04 13:53 44.04532 11.72990 37100 ft 457 kts 169°
2026-05-04 13:54 43.95295 11.76241 37083 ft 457 kts 170°
2026-05-04 13:55 43.86027 11.79509 37088 ft 458 kts 170°
2026-05-04 13:55 43.76762 11.82895 37078 ft 462 kts 165°
2026-05-04 13:56 43.70745 11.85966 37099 ft 464 kts 164°
2026-05-04 13:57 43.61651 11.90615 37096 ft 465 kts 164°
2026-05-04 13:58 43.49498 11.96786 37101 ft 466 kts 165°
2026-05-04 13:58 43.40373 12.01398 37101 ft 466 kts 165°
2026-05-04 13:59 43.34274 12.04477 37087 ft 467 kts 165°
2026-05-04 14:00 43.25107 12.09086 37092 ft 469 kts 165°
2026-05-04 14:00 43.15907 12.13706 37081 ft 470 kts 165°
2026-05-04 14:01 43.09755 12.16778 37087 ft 471 kts 165°
2026-05-04 14:02 43.00501 12.21392 37109 ft 472 kts 165°
2026-05-04 14:02 42.94327 12.24462 37095 ft 472 kts 166°
2026-05-04 14:03 42.88138 12.27532 37096 ft 473 kts 165°
2026-05-04 14:03 42.81949 12.30605 37107 ft 474 kts 166°
2026-05-04 14:04 42.72674 12.35187 37100 ft 475 kts 166°
2026-05-04 14:04 42.66458 12.38259 37112 ft 476 kts 166°
2026-05-04 14:05 42.57117 12.42849 37115 ft 476 kts 166°
2026-05-04 14:06 42.50869 12.45904 37110 ft 478 kts 166°
2026-05-04 14:06 42.44607 12.48960 37123 ft 479 kts 166°
2026-05-04 14:07 42.38331 12.52022 37139 ft 479 kts 166°
2026-05-04 14:07 42.32056 12.55082 37136 ft 480 kts 166°
2026-05-04 14:08 42.25762 12.58141 37132 ft 481 kts 166°
2026-05-04 14:08 42.19448 12.61203 37126 ft 482 kts 166°
2026-05-04 14:09 42.09971 12.65784 37179 ft 483 kts 166°
2026-05-04 14:10 42.00515 12.70334 37189 ft 483 kts 166°
2026-05-04 14:10 41.94184 12.73389 37191 ft 483 kts 166°
2026-05-04 14:11 41.87845 12.76439 37176 ft 484 kts 166°
2026-05-04 14:11 41.78326 12.80988 37145 ft 485 kts 166°
2026-05-04 14:12 41.71961 12.84018 37142 ft 486 kts 166°
2026-05-04 14:13 41.62398 12.88568 37144 ft 487 kts 166°
2026-05-04 14:13 41.56019 12.91607 37149 ft 487 kts 166°
2026-05-04 14:14 41.49624 12.94635 37156 ft 487 kts 166°
2026-05-04 14:14 41.40025 12.99162 37122 ft 488 kts 166°
2026-05-04 14:15 41.27223 13.05206 37134 ft 488 kts 166°
2026-05-04 14:16 41.17606 13.09712 37131 ft 488 kts 166°
2026-05-04 14:17 41.08034 13.14185 37144 ft 489 kts 166°
2026-05-04 14:18 40.98386 13.18682 37127 ft 490 kts 166°
2026-05-04 14:19 40.85488 13.24659 37132 ft 491 kts 166°
2026-05-04 14:19 40.79037 13.27654 37113 ft 492 kts 166°
2026-05-04 14:20 40.72583 13.30651 37123 ft 492 kts 166°
2026-05-04 14:20 40.66118 13.33623 37132 ft 492 kts 166°
2026-05-04 14:21 40.56422 13.38076 37132 ft 492 kts 166°
2026-05-04 14:21 40.49998 13.41033 37132 ft 492 kts 166°
2026-05-04 14:22 40.43525 13.44003 37137 ft 493 kts 166°
2026-05-04 14:22 40.37045 13.46961 37139 ft 493 kts 166°
2026-05-04 14:23 40.27319 13.51381 37131 ft 494 kts 166°
2026-05-04 14:24 40.20821 13.54345 37125 ft 495 kts 166°
2026-05-04 14:24 40.14314 13.57300 37127 ft 495 kts 166°
2026-05-04 14:25 40.07794 13.60247 37111 ft 496 kts 166°
2026-05-04 14:25 39.98003 13.64658 37124 ft 496 kts 166°
2026-05-04 14:26 39.91463 13.67606 37131 ft 497 kts 166°
2026-05-04 14:26 39.86034 13.70052 37134 ft 497 kts 166°
2026-05-04 14:27 39.79494 13.72994 37137 ft 497 kts 166°
2026-05-04 14:27 39.71892 13.76403 37139 ft 497 kts 166°
2026-05-04 14:28 39.66404 13.78855 37138 ft 497 kts 166°
2026-05-04 14:28 39.59864 13.81770 37141 ft 497 kts 166°
2026-05-04 14:29 39.46758 13.87595 37133 ft 498 kts 166°
2026-05-04 14:30 39.40233 13.90497 37115 ft 499 kts 166°
2026-05-04 14:31 39.30366 13.94856 37124 ft 500 kts 166°
2026-05-04 14:32 39.17188 14.00660 37116 ft 501 kts 166°
2026-05-04 14:32 39.10593 14.03551 37120 ft 501 kts 166°
2026-05-04 14:33 39.03990 14.06450 37122 ft 501 kts 166°
2026-05-04 14:33 38.97385 14.09344 37129 ft 502 kts 166°
2026-05-04 14:34 38.90770 14.12237 37115 ft 502 kts 165°
2026-05-04 14:34 38.84184 14.15087 37119 ft 501 kts 168°
2026-05-04 14:35 38.77421 14.16969 37120 ft 497 kts 173°
2026-05-04 14:35 38.70639 14.18725 37104 ft 497 kts 173°
2026-05-04 14:36 38.63870 14.20485 37139 ft 496 kts 173°
2026-05-04 14:36 38.57104 14.22245 37027 ft 496 kts 173°
2026-05-04 14:36 38.53715 14.23121 36760 ft 497 kts 173°
2026-05-04 14:37 38.50321 14.23995 36499 ft 497 kts 173°
2026-05-04 14:37 38.46921 14.24870 36224 ft 498 kts 173°
2026-05-04 14:37 38.43519 14.25747 35876 ft 498 kts 173°
2026-05-04 14:37 38.40103 14.26625 34840 ft 504 kts 174°
2026-05-04 14:38 38.36648 14.27511 33856 ft 509 kts 174°
2026-05-04 14:38 38.33213 14.28393 32817 ft 511 kts 173°
2026-05-04 14:38 38.29674 14.29299 31969 ft 509 kts 173°
2026-05-04 14:38 38.26278 14.30173 31320 ft 502 kts 173°
2026-05-04 14:39 38.22866 14.31052 30589 ft 498 kts 172°
2026-05-04 14:39 38.19486 14.31923 29873 ft 494 kts 172°
2026-05-04 14:39 38.16140 14.32785 29180 ft 487 kts 172°
2026-05-04 14:40 38.09576 14.34463 27851 ft 476 kts 172°
2026-05-04 14:40 38.06336 14.35287 27192 ft 471 kts 172°
2026-05-04 14:40 38.03135 14.36101 26552 ft 467 kts 172°
2026-05-04 14:40 37.99962 14.36908 25927 ft 462 kts 172°
2026-05-04 14:41 37.96820 14.37706 25303 ft 459 kts 172°
2026-05-04 14:41 37.93704 14.38496 24709 ft 455 kts 173°
2026-05-04 14:41 37.87547 14.40058 23545 ft 448 kts 172°
2026-05-04 14:42 37.81524 14.41589 22452 ft 436 kts 172°
2026-05-04 14:42 37.78564 14.42339 21917 ft 431 kts 172°
2026-05-04 14:42 37.75640 14.43076 21387 ft 427 kts 172°
2026-05-04 14:43 37.72740 14.43807 20862 ft 423 kts 172°
2026-05-04 14:43 37.69854 14.44532 20328 ft 421 kts 172°
2026-05-04 14:43 37.66987 14.45252 19779 ft 420 kts 172°
2026-05-04 14:43 37.64124 14.45970 19242 ft 418 kts 171°
2026-05-04 14:44 37.61279 14.46680 18718 ft 416 kts 172°
2026-05-04 14:44 37.58445 14.47328 18246 ft 411 kts 173°
2026-05-04 14:44 37.55627 14.47913 17691 ft 408 kts 173°
2026-05-04 14:44 37.52841 14.48458 17125 ft 405 kts 174°
2026-05-04 14:45 37.50078 14.48989 16680 ft 399 kts 174°
2026-05-04 14:45 37.47339 14.49523 16193 ft 395 kts 173°
2026-05-04 14:45 37.44634 14.50062 15621 ft 394 kts 173°
2026-05-04 14:45 37.41956 14.50604 15250 ft 386 kts 173°
2026-05-04 14:46 37.39320 14.51144 14598 ft 382 kts 173°
2026-05-04 14:46 37.36728 14.51678 14059 ft 373 kts 173°
2026-05-04 14:46 37.34202 14.52202 13546 ft 362 kts 173°
2026-05-04 14:46 37.31750 14.52711 13054 ft 352 kts 173°
2026-05-04 14:47 37.29396 14.53193 12589 ft 343 kts 173°
2026-05-04 14:47 37.27072 14.53665 12133 ft 335 kts 173°
2026-05-04 14:47 37.24798 14.54126 11677 ft 327 kts 173°
2026-05-04 14:47 37.22573 14.54579 11221 ft 321 kts 174°
2026-05-04 14:48 37.20384 14.55024 10774 ft 318 kts 173°
2026-05-04 14:48 37.18224 14.55462 10410 ft 309 kts 173°
2026-05-04 14:48 37.16131 14.55888 10090 ft 300 kts 172°
2026-05-04 14:48 37.14085 14.56308 9964 ft 298 kts 172°
2026-05-04 14:49 37.12041 14.56725 9839 ft 298 kts 173°
2026-05-04 14:49 37.09991 14.57142 9489 ft 299 kts 172°
2026-05-04 14:49 37.07929 14.57560 8917 ft 297 kts 172°
2026-05-04 14:49 37.05892 14.57971 8227 ft 295 kts 171°
2026-05-04 14:50 37.03935 14.58369 8033 ft 274 kts 172°
2026-05-04 14:50 37.02132 14.58734 7913 ft 252 kts 172°
2026-05-04 14:50 37.00444 14.58799 7771 ft 238 kts 193°
2026-05-04 14:50 36.98956 14.58022 7574 ft 229 kts 219°
2026-05-04 14:51 36.97898 14.56579 7243 ft 226 kts 243°
2026-05-04 14:51 36.97358 14.54752 6937 ft 224 kts 255°
2026-05-04 14:51 36.96912 14.52883 6624 ft 224 kts 255°
2026-05-04 14:51 36.96463 14.51009 6303 ft 225 kts 254°
2026-05-04 14:52 36.96012 14.49141 5998 ft 224 kts 254°
2026-05-04 14:52 36.95560 14.47278 5688 ft 223 kts 253°
2026-05-04 14:52 36.95108 14.45423 5392 ft 223 kts 253°
2026-05-04 14:52 36.94658 14.43576 5098 ft 222 kts 253°
2026-05-04 14:53 36.94211 14.41732 4799 ft 221 kts 252°
2026-05-04 14:53 36.93509 14.40064 4614 ft 215 kts 227°
2026-05-04 14:53 36.92309 14.39041 4461 ft 207 kts 199°
2026-05-04 14:53 36.90939 14.38828 4318 ft 200 kts 173°
2026-05-04 14:54 36.89649 14.39398 4175 ft 198 kts 146°
2026-05-04 14:54 36.89401 14.39620 4146 ft 198 kts 141°
2026-05-04 14:54 36.88935 14.40199 4076 ft 199 kts 128°
2026-05-04 14:55 36.88352 14.41676 3941 ft 199 kts 102°
2026-05-04 14:55 36.88429 14.43377 3809 ft 199 kts 70°
2026-05-04 14:55 36.88966 14.44969 3644 ft 200 kts 58°
2026-05-04 14:55 36.89803 14.46324 3451 ft 195 kts 50°
2026-05-04 14:56 36.90677 14.47610 3173 ft 193 kts 50°
2026-05-04 14:56 36.91537 14.48883 2917 ft 190 kts 50°
2026-05-04 14:56 36.92385 14.50143 2658 ft 187 kts 51°
2026-05-04 14:56 36.93205 14.51364 2417 ft 179 kts 51°
2026-05-04 14:57 36.93984 14.52525 2180 ft 169 kts 50°
2026-05-04 14:57 36.94713 14.53612 1987 ft 158 kts 51°
2026-05-04 14:57 36.95404 14.54641 1763 ft 152 kts 51°
2026-05-04 14:57 36.96093 14.55648 1552 ft 151 kts 51°
2026-05-04 14:58 36.96762 14.56652 1411 ft 150 kts 51°
2026-05-04 14:58 36.97411 14.57662 1200 ft 149 kts 50°
2026-05-04 14:58 36.98077 14.58633 976 ft 146 kts 48°
2026-05-04 14:58 36.98727 14.59605 769 ft 145 kts 50°
2026-05-04 14:59 36.99324 14.60503 722 ft 107 kts 50°
2026-05-04 14:59 36.99632 14.60965 719 ft 51 kts 50°
2026-05-04 14:59 37.00019 14.61442 721 ft 26 kts 25°
2026-05-04 15:00 37.00136 14.61477 722 ft 9 kts 341°
2026-05-04 15:00 37.00150 14.61416 721 ft 8 kts 247°
2026-05-04 15:00 37.00113 14.61360 722 ft 9 kts 230°
2026-05-04 15:01 37.00006 14.61200 721 ft 15 kts 230°
2026-05-04 15:01 36.99936 14.61095 721 ft 17 kts 230°
2026-05-04 15:01 36.99856 14.60977 721 ft 19 kts 230°
2026-05-04 15:01 36.99798 14.60890 721 ft 9 kts 230°
2026-05-04 15:02 36.99756 14.60827 721 ft 10 kts 230°
2026-05-04 15:02 36.99709 14.60755 721 ft 9 kts 231°
2026-05-04 15:02 36.99677 14.60707 722 ft 2 kts 230°
2026-05-04 15:02 36.99671 14.60697 721 ft 1 kts 233°
2026-05-04 15:03 36.99669 14.60691 721 ft 2 kts 244°
2026-05-04 15:03 36.99678 14.60673 722 ft 2 kts 318°
2026-05-04 15:03 36.99688 14.60662 722 ft 2 kts 320°
2026-05-04 15:03 36.99696 14.60654 723 ft 1 kts 320°
2026-05-04 15:04 36.99701 14.60649 723 ft 1 kts 323°
2026-05-04 15:04 36.99708 14.60647 722 ft 1 kts 347°
2026-05-04 15:04 36.99710 14.60647 722 ft 0 kts 351°